Location: Windsor
(43.2292°N, 89.3015°W)
Time: 09:31:57
(UTC+00:00)

Tiros 1 - Pass Details

Date: 03 June 2022
Orbit: 629 x 663 km, 48.4° (Epoch: 04 July)

Event Time Altitude Azimuth Distance (km) Brightness Sun altitude
Rises 03:57:59 0° 239° (WSW) 2,906 10.5 -19.1°
Reaches altitude 10° 04:00:18 10° 238° (WSW) 2,000 9.6 -19.3°
Maximum altitude 04:04:53 79° 153° (SSE) 644 6.9 -19.7°
Drops below altitude 10° 04:09:31 10° 66° (ENE) 2,010 9.7 -20.1°
Sets 04:11:51 0° 65° (ENE) 2,923 10.5 -20.3°
